This is the latest recevied weather packets stored in our database for station/object N9EA. If no packets are shown the sender has not sent any weather packets the latest 10 day(s).
| Time | Temp. | Humidity | Pressure | Rain* | Wind** | Luminosity | Snow |
|---|---|---|---|---|---|---|---|
| 1778161782 | 11.11° C | 51% | 1013 hPa | 0 mm | - | 391 W/m² | - |
| 1778161479 | 11.67° C | 50% | 1013 hPa | 0 mm | - | 102 W/m² | - |
| 1778161175 | 11.67° C | 51% | 1012.9 hPa | 0 mm | - | 162 W/m² | - |
| 1778160870 | 11.11° C | 52% | 1013 hPa | 0 mm | - | 338 W/m² | - |
| 1778160564 | 10.56° C | 53% | 1013.1 hPa | 0 mm | - | 261 W/m² | - |
| 1778160260 | 10.56° C | 54% | 1013.1 hPa | 0 mm | - | 240 W/m² | - |
| 1778159956 | 10° C | 55% | 1013.5 hPa | 0 mm | - | 231 W/m² | - |
| 1778159653 | 9.44° C | 57% | 1013.5 hPa | 0 mm | - | 222 W/m² | - |
| 1778159350 | 8.89° C | 58% | 1013.6 hPa | 0 mm | - | 155 W/m² | - |
| 1778159047 | 8.89° C | 58% | 1013.6 hPa | 0 mm | - | 167 W/m² | - |
| 1778158746 | 8.33° C | 59% | 1013.7 hPa | 0 mm | - | 115 W/m² | - |
| 1778158444 | 8.33° C | 62% | 1013.6 hPa | 0 mm | - | 127 W/m² | - |
| 1778158141 | 7.78° C | 62% | 1013.6 hPa | 0 mm | - | 96 W/m² | - |
| 1778157836 | 7.78° C | 62% | 1013.6 hPa | 0 mm | - | 120 W/m² | - |
| 1778157535 | 7.78° C | 61% | 1013.6 hPa | 0 mm | - | 86 W/m² | - |
| 1778157232 | 8.33° C | 60% | 1013.6 hPa | 0 mm | - | 86 W/m² | - |
| 1778156928 | 8.33° C | 59% | 1013.8 hPa | 0 mm | - | 105 W/m² | - |
| 1778156624 | 7.78° C | 60% | 1013.6 hPa | 0 mm | - | 143 W/m² | - |
| 1778156320 | 7.78° C | 61% | 1013.5 hPa | 0 mm | - | 133 W/m² | - |
| 1778156016 | 7.22° C | 61% | 1013.6 hPa | 0 mm | - | 107 W/m² | - |
| 1778155713 | 6.67° C | 62% | 1013.8 hPa | 0 mm | - | 101 W/m² | - |
| 1778155409 | 6.11° C | 62% | 1013.6 hPa | 0 mm | - | 79 W/m² | - |
| 1778155106 | 5.56° C | 63% | 1013.6 hPa | 0 mm | - | 67 W/m² | - |
| 1778154801 | 5.56° C | 62% | 1013.8 hPa | 0 mm | - | 44 W/m² | - |
| 1778154497 | 5.56° C | 62% | 1013.8 hPa | 0 mm | - | 38 W/m² | - |
* Rain latest hour (hover to see other rain measurements)
** Current wind speed in m/s (hover to see current wind gust speed)